Regional Weather Roundup
Issued by NWS

Home | Current Version | Previous Version | Graphics & Text | Print | Product List | Glossary On
Versions: 1 2 3 4 5 6 7 8 9 10 11 12 13 14 15 16 17 18 19 20 21 22 23 24 25 26 27 28 29 30 31 32 33 34 35 36 37 38 39 40 41 42 43 44 45 46 47 48 49 50
000
ASUS43 KLOT 030710
RWRIL

ILLINOIS REGIONAL WEATHER ROUNDUP
NATIONAL WEATHER SERVICE CHICAGO/ROMEOVILLE IL
100 AM CST TUE MAR 03 2015

NOTE: "FAIR" INDICATES FEW OR NO CLOUDS BELOW 12,000 FEET WITH NO
SIGNIFICANT WEATHER AND/OR OBSTRUCTIONS TO VISIBILITY.

* THESE STATIONS ARE NOT UNDER NWS QUALITY CONTROL. THEY ALSO MAY NOT
  REPORT WEATHER SUCH AS PRECIPITATION OR FOG.

ILZ001-002-007-009-015-016-024-030800-
NORTHWEST ILLINOIS

CITY           SKY/WX    TMP DP  RH WIND       PRES   REMARKS
MOLINE         CLOUDY    27  18  69 SE9       30.10F WCI  18
STERLING*      CLOUDY    25  18  74 SE6       30.15F WCI  18
SAVANNA*       CLOUDY    27  20  75 SE12      30.12F WCI  16
$$

ILZ003-004-008-010-011-017-018-030800-
NORTH CENTRAL ILLINOIS

CITY           SKY/WX    TMP DP  RH WIND       PRES   REMARKS
ROCKFORD       CLOUDY    24  17  74 SE9       30.17F WCI  14
FREEPORT*      CLOUDY    24  19  80 SE8       30.16F WCI  15
ROCHELLE*      CLOUDY    24  19  81 SE12      30.16F WCI  13
DE KALB*       CLOUDY    22  17  80 SE8       30.17F WCI  13
PERU*          FLURRIES  27  18  71 SE12      30.15F WCI  16
$$

ILZ005-006-012>014-019>023-030800-
NORTHEAST ILLINOIS

CITY           SKY/WX    TMP DP  RH WIND       PRES   REMARKS
CHICAGO-OHARE  CLOUDY    26  16  65 S13       30.20F WCI  15
CHICAGO-MIDWAY CLOUDY    28  16  60 S8        30.22F WCI  20
AURORA         CLOUDY    26  16  65 SE10      30.18F WCI  16
LANSING*       CLOUDY    27  17  66 S7        30.23F WCI  19
JOLIET*        CLOUDY    25  17  72 SE8       30.20F WCI  16
WAUKEGAN       CLOUDY    26  15  63 S9        30.20F WCI  17
DUPAGE AIRPORT CLOUDY    25  15  66 S10       30.19F WCI  15
KANKAKEE*      CLOUDY    26  19  77 E7        30.22F WCI  18
WHEELING       CLOUDY    26  14  60 SE8       30.22F WCI  18
MORRIS*        CLOUDY    26  20  80 SE8       30.18F WCI  17
ROMEOVILLE*    CLOUDY    26  17  71 SE8       30.20F WCI  17
NORTHERLY ISL    N/A     27  17  66 SE8         N/A  WCI  19
$$

LMZ740>746-030800-
SOUTHERN LAKE MICHIGAN

STATION/POSITION SKY/WX   TEMP    WIND        PRES    VSBY  WAVE
                          AIR SEA DIR/SP/G                  HT/PER
                          (F)     (DEG/KT/KT) (MB)    (MI)  (FT/S)
WAUKEGAN HARBOR            27     170/  9/ 11   N/A
HARRISON CRIB              27     170/ 13/ 17   N/A
BURNHAM HARBOR             27     160/  7/ 10   N/A
CALUMET HARBOR             27     140/  9/ 12 1022.3F
MICHIGAN CITY              26     120/  7/  9   N/A
$$

ILZ025>027-034>036-040-047-049-050-058-095>099-030800-
WEST-CENTRAL ILLINOIS

CITY           SKY/WX    TMP DP  RH WIND       PRES   REMARKS
QUINCY         MIX PCPN  29  21  72 SE12      30.07F WCI  19
GALESBURG*     CLOUDY    26  21  81 SE7       30.11F WCI  19
MACOMB*        CLOUDY    28  23  82 SE10      30.13F WCI  18
JACKSONVILLE*  CLOUDY    31  24  76 SE8       30.14F WCI  23
PITTSFIELD*    LGT RAIN  30  23  77 E12       30.08F WCI  20
$$

ILZ028>032-037-038-041>044-048-051>054-059>061-030800-
CENTRAL ILLINOIS

CITY           SKY/WX    TMP DP  RH WIND       PRES   REMARKS
PONTIAC        CLOUDY    25  21  86 E12       30.18F WCI  14
BLOOMINGTON    FLURRIES  26  19  74 SE13      30.14F WCI  15
DECATUR        FRZ RAIN  27  22  81 E8        30.16F WCI  19
PEORIA         MIX PCPN  28  19  69 SE8       30.15F WCI  20
LACON*         MIX PCPN  25  18  77 SE9       30.15F WCI  15
LINCOLN*       LGT RAIN  28  23  79 SE9       30.18F WCI  19
SPRINGFIELD    CLOUDY    29  22  75 E9        30.14F WCI  20
TAYLORVILLE    CLOUDY    28  21  74 SE10      30.14F WCI  19
$$

ILZ033-039-045-046-055>057-062-063-030800-
EAST-CENTRAL ILLINOIS

CITY           SKY/WX    TMP DP  RH WIND       PRES   REMARKS
CHAMPAIGN      CLOUDY    26  20  77 SE12      30.17F WCI  16
DANVILLE*      CLOUDY    25  18  76 E5        30.18F WCI  19
RANTOUL*       CLOUDY    27  22  81 SE8       30.17F WCI  18
MATTOON        CLOUDY    29  17  61 SE12      30.17F WCI  19
PARIS*         CLOUDY    28  19  69 E3        30.20F
$$

ILZ079-100>102-030800-
SOUTHWEST ILLINOIS

CITY           SKY/WX    TMP DP  RH WIND       PRES   REMARKS
ALTON          CLOUDY    31  19  61 SE10      30.13F WCI  22
BELLEVILLE     CLOUDY    31  24  77 SE9       30.12F WCI  22
CAHOKIA*       CLOUDY    32  23  69 SE8       30.12F WCI  25
SPARTA*        CLOUDY    31  24  73 SE8       30.14F WCI  24
$$

ILZ064>066-069>071-074>076-080>082-084>086-088>090-092>094-030800-
SOUTH-CENTRAL ILLINOIS

CITY           SKY/WX    TMP DP  RH WIND       PRES   REMARKS
CARBONDALE     CLOUDY    33  24  69 SE6       30.16F WCI  28
CAIRO*         CLOUDY    37  27  65 E5        30.18F WCI  34
EFFINGHAM*     CLOUDY    30  18  61 E8        30.20F WCI  22
MARION         CLOUDY    34  25  69 E5        30.17F WCI  30
MT. VERNON     CLOUDY    30  19  64 E3        30.18F
CENTRALIA*     CLOUDY    31  20  64 E6        30.16F WCI  25
SALEM*         CLOUDY    32  20  62 SE7       30.17F WCI  26
METROPOLIS*    CLOUDY    36  27  70 E3        30.18F
$$

ILZ067-068-072-073-078-083-087-091-030800-
SOUTHEAST ILLINOIS

CITY           SKY/WX    TMP DP  RH WIND       PRES   REMARKS
LAWRENCEVILLE  CLOUDY    30  20  66 SE8       30.21F WCI  22
FLORA*         CLOUDY    30  21  69 SE8       30.19F WCI  22
FAIRFIELD*     CLOUDY    32  22  68 E3        30.17F
HARRISBURG*    CLOUDY    32  27  81 E6        30.19F WCI  27
ROBINSON*      CLOUDY    29  19  65 SE7       30.23F WCI  22
CARMI*         CLOUDY    34  28  79 E6        30.19F WCI  29
$$

ABBREVIATIONS USED IN REMARKS
   TC - TEMPERATURE IN CELSIUS
  WCI - WIND CHILL INDEX
   HX - HEAT INDEX
  VSB - VISIBILITY
$$



USA.gov is the U.S. government's official web portal to all federal, state and local government web resources and services.